Wind_Speed
9 9 8 7 8 7 8 8 8 8 8 8 9 10 10 10 11 12 12 12 12 12 12 12 11 11 11 11 11 11 12 12 12 11 10 10 9 8 7 6 5 4 3
10 9 9 8 8 9 9 9 10 10 11 11 11 11 12 12 12 13 13 13 13 13 13 12 11 11 11 11 11 11 10 10 10 10 9 8 8 7 7 6 5 3 2
10 10 10 10 11 11 11 11 12 12 13 13 13 13 14 14 14 14 14 14 13 13 13 12 12 11 11 11 10 10 10 9 9 8 8 7 7 6 6 5 4 3 2
12 12 13 14 13 13 14 14 14 15 15 15 16 16 16 16 16 16 16 15 15 14 13 13 12 12 11 11 10 9 9 9 8 7 7 7 6 6 5 4 3 2 2
15 15 16 16 16 16 17 17 17 18 18 18 18 18 18 18 19 18 18 17 17 16 14 14 13 12 12 11 10 9 8 8 7 7 6 6 6 5 5 4 3 2 1
17 18 19 19 19 19 20 21 21 21 21 21 21 21 21 21 21 21 20 19 18 17 16 15 15 14 13 12 10 9 9 8 7 7 6 6 5 5 4 3 2 1 1
20 21 21 21 21 21 22 22 23 24 25 25 24 23 23 23 23 23 22 22 20 20 19 18 17 15 14 13 11 10 9 9 8 7 6 5 5 4 4 3 2 2 2
21 22 23 23 23 24 24 25 26 27 27 27 27 27 26 26 25 24 24 24 23 22 20 20 19 17 15 14 13 11 10 9 9 8 7 6 5 4 4 3 3 2 3
22 23 23 24 24 25 25 26 27 28 29 30 30 30 29 29 28 27 27 26 26 25 24 22 21 20 18 16 15 14 12 11 10 9 8 6 5 5 4 4 3 3 4
21 22 23 23 24 25 25 26 27 28 29 30 31 31 31 31 31 30 29 28 28 27 26 25 23 22 20 19 17 16 14 13 12 10 9 8 6 5 5 4 4 4 4
21 21 21 21 21 22 23 24 25 26 27 28 30 31 32 32 32 32 31 29 28 28 27 26 25 24 23 21 20 18 17 15 14 13 11 9 8 7 6 5 5 4 5
19 19 19 19 19 20 20 21 22 23 24 26 27 29 31 31 32 32 32 32 31 30 29 28 27 25 24 22 21 20 18 16 16 15 13 11 10 9 7 7 6 6 6
17 17 17 18 18 18 19 20 20 21 22 23 24 25 27 29 31 32 33 33 33 32 31 29 28 27 25 24 22 22 20 19 17 17 16 14 12 11 9 8 7 7 6
16 16 16 16 17 17 18 19 19 20 21 22 23 24 25 26 28 30 31 33 33 33 32 31 30 29 27 27 25 24 23 21 19 18 18 17 15 13 12 11 9 8 8
16 16 16 17 17 18 18 18 18 18 19 20 21 22 23 25 26 27 29 30 32 32 32 31 30 29 28 28 27 26 25 24 21 20 19 19 18 16 14 13 12 10 10
15 16 16 17 17 18 18 18 18 18 18 19 20 21 23 24 25 26 27 29 30 31 32 31 30 29 29 27 27 27 27 26 24 23 21 21 19 18 17 15 14 12 11
15 16 16 17 17 18 18 18 18 18 18 18 18 19 20 21 23 24 26 27 28 30 32 32 31 31 30 28 28 27 27 27 25 24 24 23 21 20 19 18 16 15 13
15 16 17 18 18 19 19 19 19 19 18 18 17 17 18 19 20 22 23 25 27 28 30 31 32 32 31 29 28 28 28 27 27 26 25 25 24 23 21 20 18 17 15
16 17 18 19 20 20 20 20 20 19 19 18 17 17 17 17 17 19 20 23 25 26 28 30 31 32 32 31 30 29 29 28 28 28 27 27 27 25 24 22 21 20 18
16 17 19 20 20 21 21 21 21 20 19 18 16 15 15 15 16 17 18 20 22 24 26 28 29 31 32 31 31 31 30 29 29 29 29 28 29 28 26 25 23 22 21
16 18 20 21 21 21 22 22 22 21 19 18 17 16 15 15 15 15 16 17 19 21 23 25 27 30 31 31 31 31 30 30 30 30 30 29 30 30 28 27 26 24 24
17 19 20 21 21 22 22 23 22 21 20 19 18 16 15 15 15 15 15 16 17 18 20 22 24 27 30 31 31 32 32 31 30 30 30 30 30 30 30 29 29 27 26
17 18 19 21 22 22 23 23 23 22 22 21 19 17 16 15 14 14 14 14 15 16 18 20 22 24 27 29 30 31 31 32 31 30 31 31 31 32 30 30 30 30 29
16 18 19 21 22 23 23 23 23 23 22 21 20 18 17 15 14 14 13 13 13 14 15 17 19 21 24 26 28 29 29 30 30 31 31 32 32 32 31 30 31 31 30
16 17 19 20 22 23 23 24 24 24 23 21 20 19 18 16 14 13 12 12 12 13 13 15 17 19 20 22 25 27 28 29 29 29 30 31 33 33 32 31 31 32 32
15 17 19 20 22 23 23 24 24 24 23 22 21 20 19 17 15 14 12 11 10 11 11 12 14 17 18 20 22 24 27 28 28 28 29 30 32 33 33 33 33 33 33
Wind_Direction
302 298 292 291 292 291 293 285 277 271 267 264 259 257 257 255 255 256 258 262 266 269 274 277 281 288 294 299 302 302 301 303 306 307 308 309 312 314 315 317 317 313 313
294 297 295 293 290 289 286 282 279 275 274 271 270 270 267 264 260 261 262 265 266 269 273 275 278 283 289 294 299 301 301 302 305 306 308 309 310 312 313 316 317 318 295
288 293 296 291 287 286 285 284 282 279 277 274 273 273 271 267 266 267 264 266 268 269 272 275 276 280 285 291 295 298 299 300 303 306 307 308 310 309 310 314 312 308 279
290 292 292 288 285 284 282 280 278 278 277 275 273 272 272 270 269 268 267 266 266 268 270 271 273 276 281 287 291 294 294 296 300 304 306 306 308 309 311 310 306 301 261
293 292 289 285 282 279 277 276 275 274 274 273 271 271 272 271 270 270 268 265 265 267 269 269 270 273 277 281 284 287 289 289 294 299 302 303 304 309 312 307 300 287 232
293 290 287 284 281 278 275 273 273 272 271 270 268 267 269 269 270 268 267 265 265 266 266 266 267 270 273 274 275 277 280 282 285 289 295 299 299 302 307 304 294 263 211
294 290 287 283 280 278 275 272 271 270 270 269 267 266 265 265 267 266 265 264 265 264 264 264 263 266 269 268 268 269 270 273 276 279 285 291 293 291 291 292 271 235 206
295 292 289 286 283 279 275 273 270 269 268 267 265 264 264 263 263 264 263 263 263 262 262 263 261 261 264 264 262 261 261 264 268 272 274 278 281 280 282 272 252 230 212
297 294 291 289 287 284 279 276 273 271 269 267 265 265 264 263 261 261 262 261 261 260 260 259 259 258 259 259 258 256 254 256 260 263 264 266 269 268 271 260 248 233 219
302 299 297 294 290 287 284 279 276 273 271 269 266 264 263 262 261 261 260 261 260 258 258 258 257 255 255 253 253 253 250 250 250 252 255 255 255 256 257 256 240 230 222
308 306 302 299 296 293 289 285 281 277 274 271 268 265 263 261 260 260 258 259 258 256 255 255 255 253 252 250 248 248 248 245 244 243 247 248 246 246 247 247 236 228 221
315 312 309 307 304 300 296 293 288 283 279 275 271 268 265 262 260 259 257 257 256 256 254 253 253 252 250 247 244 244 243 241 240 241 242 243 242 239 240 241 235 228 219
322 321 319 315 312 308 302 298 293 288 284 279 274 270 267 264 261 259 257 255 254 254 253 252 251 251 249 246 242 240 240 239 239 238 238 239 239 238 236 235 233 224 218
331 329 328 327 323 317 312 305 299 293 286 282 278 274 270 267 264 261 258 256 254 252 251 251 250 251 250 247 242 240 238 237 237 237 237 238 238 238 235 232 228 223 220
340 339 336 334 331 327 321 315 307 299 292 285 280 276 274 271 268 263 258 256 253 251 250 249 248 248 248 246 243 240 237 236 237 237 237 237 237 236 234 232 227 224 222
348 345 342 339 336 333 329 324 317 310 302 293 285 279 275 274 270 265 260 256 253 250 248 246 245 246 245 245 244 239 235 235 236 237 237 236 234 234 233 231 226 225 224
354 352 350 347 343 340 336 331 327 321 311 303 294 287 281 276 272 266 261 257 254 250 248 246 244 243 242 243 242 238 236 234 233 234 234 233 230 231 230 229 226 224 223
1 359 357 354 350 347 343 339 335 331 323 313 304 296 288 281 276 268 262 258 256 252 248 246 243 242 242 241 240 239 237 235 234 233 233 232 230 229 229 228 226 222 222
5 4 2 359 356 353 350 346 342 337 332 324 315 305 295 289 282 273 266 261 258 255 250 246 242 241 239 239 238 238 237 235 234 233 233 232 230 228 228 227 225 222 222
8 7 6 3 0 357 354 351 346 342 338 333 326 316 305 296 289 280 271 264 260 257 252 246 242 239 237 237 235 235 236 233 232 233 233 233 231 229 229 227 225 224 223
10 9 8 5 3 0 358 354 351 347 343 339 334 327 317 306 297 288 279 272 265 259 253 247 241 237 236 235 234 233 234 233 233 233 233 232 232 230 229 227 225 225 223
11 10 8 7 5 3 0 358 355 353 349 345 339 332 324 315 305 295 286 278 269 261 253 247 243 238 235 235 232 232 233 232 231 231 231 231 230 229 229 227 226 227 223
12 10 10 9 7 4 2 0 359 357 354 350 345 339 331 324 316 306 293 284 274 265 256 248 244 239 236 235 233 232 233 233 231 230 230 229 230 230 230 229 227 226 225
13 11 10 9 6 4 3 3 2 1 358 356 353 348 341 334 326 317 305 291 280 269 259 250 244 241 238 237 235 234 234 233 233 232 232 231 230 229 230 231 230 228 226
13 11 10 8 6 5 5 4 4 3 2 0 358 355 350 343 335 327 318 300 284 274 263 253 245 240 239 238 235 234 234 233 233 232 232 232 231 230 230 230 230 230 227
11 9 8 7 6 5 4 4 4 3 3 2 1 359 357 353 348 339 329 315 296 281 268 256 249 243 240 239 236 234 233 233 234 233 232 231 230 230 230 231 230 231 229
Height
5880 5879 5878 5878 5878 5877 5877 5876 5876 5876 5875 5876 5876 5876 5876 5877 5877 5878 5878 5879 5880 5880 5880 5880 5881 5881 5881 5881 5881 5881 5880 5880 5880 5880 5880 5879 5879 5879 5878 5878 5878 5878 5878
5878 5877 5877 5876 5876 5875 5875 5874 5874 5874 5874 5874 5874 5874 5874 5874 5875 5875 5876 5876 5877 5877 5878 5878 5878 5879 5879 5879 5879 5879 5879 5879 5879 5879 5878 5878 5878 5878 5878 5877 5877 5877 5877
5876 5876 5875 5874 5874 5873 5872 5872 5872 5871 5871 5871 5871 5871 5871 5872 5872 5873 5873 5874 5874 5875 5875 5876 5876 5876 5877 5877 5877 5877 5877 5877 5877 5877 5877 5877 5877 5877 5877 5877 5877 5877 5877
5874 5873 5873 5872 5871 5871 5870 5869 5869 5869 5868 5868 5868 5868 5868 5868 5869 5869 5870 5871 5871 5872 5872 5873 5874 5874 5875 5875 5875 5875 5875 5876 5876 5876 5876 5876 5876 5876 5876 5876 5876 5876 5876
5872 5871 5870 5869 5868 5868 5867 5866 5866 5865 5865 5865 5865 5865 5865 5865 5866 5866 5866 5867 5868 5869 5869 5870 5871 5872 5872 5873 5873 5873 5873 5874 5874 5875 5875 5875 5875 5875 5875 5875 5875 5875 5876
5869 5868 5867 5865 5865 5864 5863 5862 5862 5862 5861 5861 5861 5861 5861 5861 5862 5862 5863 5864 5865 5865 5866 5867 5868 5869 5870 5870 5871 5871 5872 5872 5873 5873 5873 5874 5874 5874 5874 5874 5875 5875 5875
5865 5864 5863 5862 5860 5859 5859 5858 5858 5857 5857 5856 5856 5857 5857 5857 5857 5858 5859 5860 5860 5861 5862 5864 5865 5866 5867 5868 5868 5869 5870 5870 5871 5872 5872 5872 5873 5873 5873 5874 5874 5874 5875
5861 5860 5858 5857 5856 5855 5854 5853 5853 5852 5851 5851 5851 5851 5852 5852 5853 5853 5854 5855 5856 5857 5858 5860 5861 5863 5864 5865 5866 5867 5867 5868 5869 5870 5870 5871 5871 5872 5872 5873 5873 5874 5875
5857 5855 5853 5852 5850 5849 5848 5847 5847 5846 5846 5845 5845 5846 5846 5847 5847 5848 5849 5850 5851 5852 5854 5855 5857 5858 5860 5861 5863 5864 5865 5866 5867 5868 5869 5870 5870 5871 5871 5872 5872 5873 5874
5853 5850 5849 5847 5845 5843 5842 5841 5840 5840 5839 5839 5839 5839 5840 5841 5842 5843 5844 5845 5846 5847 5848 5850 5852 5854 5855 5857 5859 5860 5862 5863 5864 5866 5867 5868 5869 5869 5870 5870 5871 5872 5873
5848 5846 5844 5842 5840 5838 5836 5835 5834 5833 5832 5832 5832 5832 5833 5834 5835 5836 5837 5839 5840 5841 5843 5844 5846 5848 5850 5852 5854 5856 5858 5860 5861 5863 5864 5866 5867 5868 5868 5869 5870 5871 5872
5845 5842 5840 5838 5836 5834 5832 5830 5828 5827 5826 5826 5825 5826 5826 5827 5828 5829 5830 5832 5834 5835 5837 5839 5841 5843 5845 5848 5850 5852 5854 5856 5858 5860 5862 5863 5865 5866 5867 5868 5869 5870 5871
5842 5839 5836 5834 5832 5829 5827 5825 5823 5822 5821 5820 5819 5819 5819 5820 5820 5822 5823 5825 5827 5829 5831 5833 5835 5837 5840 5842 5845 5848 5850 5852 5854 5856 5859 5861 5862 5864 5865 5866 5867 5868 5870
5839 5836 5833 5831 5829 5826 5824 5821 5819 5817 5816 5814 5813 5813 5813 5813 5813 5814 5815 5817 5819 5822 5824 5827 5829 5831 5834 5837 5840 5843 5846 5848 5850 5853 5855 5857 5859 5861 5863 5864 5866 5867 5868
5836 5834 5831 5828 5826 5823 5820 5817 5815 5813 5811 5809 5808 5807 5807 5807 5807 5807 5808 5810 5812 5814 5817 5820 5822 5825 5828 5831 5834 5837 5840 5843 5846 5848 5851 5854 5856 5858 5860 5862 5863 5865 5867
5835 5832 5829 5826 5823 5820 5817 5814 5811 5808 5806 5804 5803 5802 5801 5800 5800 5801 5801 5803 5805 5807 5810 5813 5815 5819 5822 5825 5828 5831 5835 5838 5841 5844 5847 5849 5852 5855 5857 5859 5861 5863 5865
5834 5831 5827 5824 5821 5817 5814 5810 5807 5804 5801 5799 5797 5796 5795 5794 5794 5794 5795 5796 5797 5799 5802 5805 5809 5812 5815 5819 5822 5825 5829 5832 5836 5839 5842 5845 5848 5851 5853 5856 5858 5860 5862
5833 5829 5826 5822 5819 5815 5811 5808 5804 5801 5797 5795 5792 5791 5789 5789 5788 5788 5788 5789 5790 5792 5795 5798 5801 5805 5809 5812 5815 5819 5823 5826 5830 5833 5837 5840 5843 5846 5849 5852 5854 5857 5859
5832 5828 5825 5821 5817 5813 5809 5805 5801 5798 5794 5791 5788 5786 5785 5783 5782 5782 5782 5783 5784 5785 5788 5791 5794 5798 5801 5805 5809 5812 5816 5820 5824 5828 5831 5834 5838 5841 5844 5848 5850 5853 5856
5831 5828 5824 5820 5816 5812 5808 5804 5799 5796 5792 5788 5785 5783 5781 5779 5778 5777 5777 5777 5778 5779 5781 5783 5787 5790 5794 5798 5802 5805 5809 5813 5817 5821 5825 5829 5832 5836 5839 5843 5846 5849 5852
5830 5827 5823 5819 5815 5811 5806 5802 5798 5794 5790 5786 5783 5780 5777 5775 5774 5772 5772 5771 5772 5773 5774 5776 5779 5783 5787 5791 5795 5799 5803 5807 5811 5815 5819 5823 5826 5830 5834 5837 5841 5844 5847
5830 5826 5822 5819 5814 5810 5806 5801 5797 5792 5788 5784 5780 5777 5774 5772 5770 5768 5767 5767 5766 5767 5768 5770 5773 5776 5780 5784 5788 5792 5796 5801 5804 5808 5812 5816 5820 5824 5828 5831 5835 5839 5842
5829 5826 5822 5818 5814 5810 5805 5801 5796 5791 5786 5782 5778 5775 5772 5769 5766 5764 5763 5762 5762 5762 5763 5764 5767 5770 5773 5777 5781 5786 5789 5793 5798 5802 5806 5810 5814 5818 5822 5825 5829 5833 5837
5829 5825 5822 5818 5814 5810 5805 5800 5796 5791 5786 5781 5777 5773 5769 5766 5763 5761 5759 5758 5757 5757 5758 5759 5761 5764 5767 5771 5775 5779 5783 5787 5791 5795 5799 5803 5807 5811 5815 5819 5823 5827 5831
5829 5825 5822 5818 5814 5810 5805 5800 5795 5790 5785 5781 5776 5772 5768 5764 5761 5758 5756 5754 5753 5753 5753 5754 5756 5759 5762 5765 5768 5772 5776 5780 5784 5788 5792 5796 5801 5805 5809 5813 5817 5821 5825
5828 5825 5822 5818 5814 5810 5805 5800 5795 5790 5785 5780 5776 5771 5767 5763 5759 5756 5753 5751 5750 5749 5750 5751 5752 5754 5757 5760 5763 5766 5770 5774 5778 5782 5785 5789 5793 5798 5802 5806 5811 5815 5819